Regional Weather Roundup
Issued by NWS New Orleans/Baton Rouge, LA

Home | Current Version | Previous Version | Graphics & Text | Print | Product List | Glossary On
Versions: 1 2 3 4 5 6 7 8 9 10 11 12 13 14 15 16 17 18 19 20 21 22 23 24 25 26 27 28 29 30 31 32 33 34 35 36 37 38 39 40 41 42 43 44 45 46 47 48 49 50
691
ASUS44 KLIX 311207
RWRLIX
NEW ORLEANS REGIONAL WEATHER ROUNDUP
NATIONAL WEATHER SERVICE NEW ORLEANS LA
700 AM CDT TUE MAR 31 2015

NOTE: "FAIR" INDICATES FEW OR NO CLOUDS BELOW 12,000 FEET WITH NO
      SIGNIFICANT WEATHER AND/OR OBSTRUCTIONS TO VISIBILITY.
      SKY/WX - SKY CONDITION AND SIGNIFICANT WEATHER.
      TMP - AIR TEMPERATURE.     DP    - DEWPOINT TEMPERATURE.
      RH  - RELATIVE HUMIDITY.   PRES  - PRESSURE.
      HI  - HEAT INDEX.          WCI   - WIND CHILL INDEX.

*  THESE STATIONS ARE NOT NWS OR FAA STATIONS AND ARE NOT UNDER
   NWS QUALITY CONTROL.

LAZ038-040-048-061>063-065>067-069-311300-
SOUTHEAST LOUISIANA

CITY           SKY/WX    TMP DP  RH WIND       PRES   REMARKS
N.O. AUDUBON   NOT AVBL
N.O. INTL ARPT MOCLDY    61  58  90 S6        30.11R
6HR MIN TEMP:  61; 6HR MAX TEMP:  66;

N.O. LAKEFRONT CLEAR     65  61  87 S6        30.11R
6HR MIN TEMP:  65; 6HR MAX TEMP:  70;

SLIDELL        FOG       57  56  96 CALM      30.10S VSB 1/2
6HR MIN TEMP:  56; 6HR MAX TEMP:  68;

BATON ROUGE    CLEAR     60  58  92 CALM      30.10R
6HR MIN TEMP:  59; 6HR MAX TEMP:  66;

BOOTHVILLE     CLEAR     65  63  93 CALM      30.13R
6HR MIN TEMP:  64; 6HR MAX TEMP:  70;

BELLE CHASSE   FOG       59  58  96 S3        30.10S VSB 1/8
6HR MIN TEMP:  58; 6HR MAX TEMP:  62;

BOGALUSA*      FOG       59  56  91 CALM      30.12R VSB 1/4
6HR MIN TEMP:  58; 6HR MAX TEMP:  66;

GALLIANO*      FOG       54  54 100 S6        30.12S VSB 1/4
6HR MIN TEMP:  54; 6HR MAX TEMP:  62;

NEW ROADS*       N/A     60  60  97 SW3       30.10R FOG
6HR MIN TEMP:  60; 6HR MAX TEMP:  64;

GONZALES*      CLOUDY    59  59 100 CALM      30.10R FOG
6HR MIN TEMP:  58; 6HR MAX TEMP:  63;

HAMMOND*       CLEAR     57  55  94 CALM      30.12R
HOUMA*         FOG       57  57 100 CALM      30.11S VSB 1
PORT FOURCHON* PTSUNNY   70  66  88 CALM      30.15S

$$

MSZ070-080>082-311300-
SOUTHERN MISSISSIPPI

CITY           SKY/WX    TMP DP  RH WIND       PRES   REMARKS
MCCOMB         FOG       61  61 100 W3        30.11R VSB 3/4
6HR MIN TEMP:  55; 6HR MAX TEMP:  64;

GULFPORT       CLEAR     60  58  92 CALM      30.10R
6HR MIN TEMP:  60; 6HR MAX TEMP:  68;

BILOXI         CLEAR     64  63  96 W3        30.10R
6HR MIN TEMP:  64; 6HR MAX TEMP:  69;

PASCAGOULA     FOG       58  57  97 CALM      30.11R VSB 1/4
6HR MIN TEMP:  57; 6HR MAX TEMP:  67;


$$

COASTAL OBSERVATIONS
LAKE AND NEARSHORE STATIONS

STATION/POSITION TIME  TEMP    WIND        PRES    WAVE
                       AIR SEA DIR/SP/G            HT/PER
                 (UTC) (F)     (DEG/KT/KT) (MB)    (FT/S)
PASCAGOULA       1100   67     260/  7/  9 1018.8
WAVELAND YACHT   1100   65 67  270/  3/  4 1019.1
GRAND ISLE       1100   68 70  170/  2/  2 1019.4
SOUTHWEST PASS   1100   65 54  140/  2/  2 1020.0
NEW CANAL        1100   65     210/  2/  4 1019.6
SHELL BEACH      1100   65 70  210/  3/  3 1019.4

OFFSHORE STATIONS

STATION/POSITION TIME  TEMP    WIND        PRES    WAVE
                       AIR SEA DIR/SP/G            HT/PER
                 (UTC) (F)     (DEG/KT/KT) (MB)    (FT/S)
64 S DAUPHIN ISL 1150   70 71  250/  4/  4 1020.5    2/ 8

$$




USA.gov is the U.S. government's official web portal to all federal, state and local government web resources and services.